星链-36181(STARLINK-36181)

导读

STARLINK-36181(NORAD编号68047)是美国SpaceX公司星链(Starlink)卫星互联网星座中的一员,属于低地球轨道通信卫星。该卫星依托猎鹰9号火箭发射,纳入SpaceX全球卫星互联网组网,为偏远地区、移动载体提供宽带互联网接入服务。2026年SpaceX启动整体轨道调整计划,将数千颗星链卫星轨道高度从550公里降至480公里,该卫星大概率参与此次降轨优化,降低碰撞风险,缩短残骸再入大气层时间。作为星链万颗星座扩容后的组成部分,它助力星链完成中低纬度或极地区域覆盖补网,支撑星链在民航、科考等场景的商业化服务拓展。

Basic Information
目录编号:
68047
目录名称:
STARLINK-36181
国际标识:
2026-041H
轨道中心:
EARTH
卫星名称:
星链-36181
卫星全名:
星链-36181(STARLINK-36181)
卫星状态:
在轨 (已飞行186 天)
发射日期:
2026-03-02 UTC
国别 :
美国 (US)
星等 :
--
Orbit Information
数据来源 国际轨道数据
星历时间: 2026-09-04T03:31:24+0800
9小时前
查看轨道信息
半长轴: 6840.809km
偏心率: 0.0000469
轨道倾角: 53.160°
近地点辐角 101.534°
升交点赤经 299.395°
平近点角 258.572°
近地点: 462.351km
远地点: 462.993km
周期: 93.847分钟
每日圈数: 15.344108
Detailed Information
固有亮度:
5
最大亮度:
2.5
卫星平台:
Starlink V1.0
覆盖范围:
全球
运营商:
太空探索技术公司
运营商所在国:
美国
制造商(研发单位):
太空探索技术公司
制造商所在国:
美国
使用方式:
暂无
Satellite Introduction
Starlink 计划是 SpaceX 推出的全球卫星互联网项目,通过发射低轨道卫星,为全球尤其是偏远地区提供高速、低延迟的互联网服务。自 2019 年起,Starlink 已部署数千颗卫星,旨在缩小全球数字鸿沟,推动互联网普及。该项目还为军事、航空等行业提供通信支持,带来广泛经济效益。
2D Orbit Map
3D Orbit Map
Orbit Altitude Analysis Chart
Orbit Inclination Analysis Chart
Orbit Comprehensive Analysis Chart
View Comprehensive Chart
Conjunction Data List
Event ID Objects TCA Miss Dist (km) Collision Risk Probability Collision Risk Index (CRI) Action
CDM_260905-102905-750506-804721
2026-09-05T
10:29:17+0000
1.969 km
极远距离
2.420499E-6 低风险 0.43
CDM_260903-155305-174306-804721
2026-09-03T
15:53:11+0000
2.496 km
极远距离
1.222716E-6 低风险 0.37
CDM_260904-144505-300706-804721
2026-09-04T
14:45:34+0000
2.950 km
极远距离
8.53223E-7 极低风险 0.34